Location: Cruquius
(52.3348°N, 4.6319°E)
Time: 13:36:11
(UTC+00:00)

Cosmos 1869 Rocket - Pass Details

Date: 12 May 2021
Orbit: 605 x 633 km, 82.5° (Epoch: 19 June)

Event Time Altitude Azimuth Distance (km) Brightness Sun altitude
Rises 20:46:42 0° 353° (N) 2,877 8.0 -10.2°
Reaches altitude 10° 20:49:01 10° 0° (N) 1,967 6.9 -10.4°
Maximum altitude 20:53:10 43° 73° (ENE) 859 4.1 -10.8°
Enters shadow 20:56:21 16° 140° (SE) 1,603 5.0 -11.1°
